Location: Ajisawe
(8.4333°N, 4.3833°E)
Time: 15:25:32
(UTC+00:00)

Explorer 11/Cluster Stage 4 - All Passes

Search period start: 11 April 2021 00:00
Search period end: 21 April 2021 00:00
Orbit: 467 x 1257 km, 28.8° (Epoch: 11 April)

Date Brightness Start Highest point End Pass type
(mag) Time Alt. Az. Time Alt. Az. Time Alt. Az.
11 Apr - 06:25:36 10° SW 06:29:41 39° SE 06:34:43 10° ENE daylight
11 Apr - 08:13:24 10° W 08:18:15 44° NNW 08:24:20 10° NE daylight
11 Apr - 10:03:44 10° NW 10:08:05 19° NNW 10:13:01 10° NNE daylight
11 Apr - 11:55:00 10° NNW 11:58:53 15° N 12:03:00 10° NNE daylight
11 Apr - 13:44:13 10° NNW 13:49:54 21° NNE 13:55:43 10° ENE daylight
11 Apr - 15:32:37 10° NW 15:40:21 43° NNE 15:47:40 10° E daylight
11 Apr - 17:21:51 10° WNW 17:29:59 72° SSW 17:37:02 10° SE daylight
11 Apr - 19:13:44 10° WSW 19:18:50 20° SW 19:23:23 10° S visible
12 Apr - 06:14:39 10° SW 06:18:43 48° SSE 06:23:43 10° ENE daylight
12 Apr - 08:02:49 10° W 08:07:22 36° NNW 08:12:57 10° NE daylight
12 Apr - 09:53:28 10° NW 09:57:15 17° N 10:01:29 10° NNE daylight
12 Apr - 11:44:24 10° NNW 11:48:02 14° N 11:51:53 10° NNE daylight
12 Apr - 13:33:04 10° NNW 13:38:55 22° NNE 13:45:00 10° ENE daylight
12 Apr - 15:21:20 10° NW 15:29:13 48° NNE 15:36:49 10° E daylight
12 Apr - 17:10:41 10° WNW 17:18:47 63° SSW 17:25:58 10° SE daylight
12 Apr - 19:03:06 10° WSW 19:07:44 17° SW 19:11:57 10° S visible
13 Apr - 06:03:46 10° SW 06:07:47 62° SSE 06:12:41 10° ENE daylight
13 Apr - 07:52:21 10° W 07:56:31 29° NNW 08:01:32 10° NE daylight
13 Apr - 09:43:17 10° NW 09:46:26 14° N 09:49:54 10° NNE daylight
13 Apr - 11:33:46 10° NNW 11:37:11 14° N 11:40:50 10° NE daylight
13 Apr - 13:21:55 10° NNW 13:27:56 24° NNE 13:34:15 10° ENE daylight
13 Apr - 15:10:05 10° NW 15:18:04 55° NNE 15:25:54 10° ESE daylight
13 Apr - 16:59:35 10° WNW 17:07:34 54° SSW 17:14:51 10° SE daylight
13 Apr - 18:52:39 10° WSW 18:56:38 15° SW 19:00:21 10° S visible
14 Apr - 05:52:57 10° WSW 05:56:53 80° SSE 06:01:37 10° ENE daylight
14 Apr - 07:41:56 10° WNW 07:45:41 24° NNW 07:50:06 10° NE daylight
14 Apr - 09:33:15 10° NNW 09:35:40 12° N 09:38:15 10° NNE daylight
14 Apr - 11:23:03 10° NNW 11:26:21 14° N 11:29:52 10° NE daylight
14 Apr - 13:10:46 10° NNW 13:16:55 26° NNE 13:23:28 10° ENE daylight
14 Apr - 14:58:53 10° NW 15:06:53 63° NNE 15:14:55 10° ESE daylight
14 Apr - 16:48:32 10° WNW 16:56:21 47° SSW 17:03:37 10° SE daylight
14 Apr - 18:42:27 10° WSW 18:45:34 13° SSW 18:48:31 10° S visible
15 Apr - 03:56:17 10° S 03:58:01 13° SSE 03:59:50 10° ESE visible
15 Apr - 05:42:10 10° WSW 05:46:00 78° NNW 05:50:32 10° ENE daylight
15 Apr - 07:31:38 10° WNW 07:34:53 19° NNW 07:38:37 10° NNE daylight
15 Apr - 09:23:31 10° NNW 09:24:53 11° N 09:26:20 10° N daylight
15 Apr - 11:12:18 10° NNW 11:15:30 14° N 11:18:56 10° NE daylight
15 Apr - 12:59:38 10° NW 13:05:52 28° NNE 13:12:38 10° ENE daylight
15 Apr - 14:47:43 10° NW 14:55:41 72° NNE 15:03:53 10° ESE daylight
15 Apr - 16:37:33 10° W 16:45:08 40° SSW 16:52:22 10° SE daylight
15 Apr - 18:32:51 10° SW 18:34:30 11° SSW 18:36:07 10° SSW visible
16 Apr - 03:44:44 10° S 03:47:08 17° SSE 03:49:36 10° ESE visible
16 Apr - 05:31:28 10° WSW 05:35:09 58° NNW 05:39:26 10° NE daylight
16 Apr - 07:21:28 10° NW 07:24:07 15° NNW 07:27:03 10° NNE daylight
16 Apr - 11:01:28 10° NNW 11:04:39 14° NNE 11:08:04 10° NE daylight
16 Apr - 12:48:31 10° NW 12:54:48 31° NNE 13:01:46 10° E daylight
16 Apr - 14:36:36 10° WNW 14:44:29 82° NNE 14:52:46 10° ESE daylight
16 Apr - 16:26:39 10° W 16:33:56 35° SSW 16:41:00 10° SSE daylight
17 Apr - 03:33:25 10° SSW 03:36:16 22° SSE 03:39:09 10° E visible
17 Apr - 05:20:48 10° W 05:24:20 43° NNW 05:28:18 10° NE daylight
17 Apr - 07:11:32 10° NW 07:13:21 12° NNW 07:15:19 10° NNE daylight
17 Apr - 10:50:35 10° NNW 10:53:47 14° NNE 10:57:15 10° NE daylight
17 Apr - 12:37:26 10° NW 12:43:43 34° NNE 12:50:51 10° E daylight
17 Apr - 14:25:31 10° WNW 14:33:16 88° SSW 14:41:36 10° ESE daylight
17 Apr - 16:15:51 10° W 16:22:45 30° SSW 16:29:34 10° SSE daylight
18 Apr - 03:22:11 10° SSW 03:25:24 29° SSE 03:28:35 10° E visible
18 Apr - 05:10:13 10° W 05:13:31 32° NNW 05:17:08 10° NE visible
18 Apr - 10:39:40 10° NNW 10:42:55 14° NNE 10:46:29 10° NE daylight
18 Apr - 12:26:22 10° NW 12:32:38 38° NNE 12:39:52 10° E daylight
18 Apr - 14:14:30 10° WNW 14:22:04 77° SSW 14:30:21 10° SE daylight
18 Apr - 16:05:09 10° W 16:11:34 26° SSW 16:18:03 10° SSE daylight
19 Apr - 03:11:03 10° SW 03:14:33 39° SSE 03:17:56 10° E visible
19 Apr - 04:59:41 10° W 05:02:44 25° NNW 05:05:57 10° NNE visible
19 Apr - 10:28:42 10° NNW 10:32:01 15° NNE 10:35:43 10° NE daylight
19 Apr - 12:15:19 10° NW 12:21:32 43° NNE 12:28:52 10° E daylight
19 Apr - 14:03:33 10° WNW 14:10:52 66° SSW 14:19:03 10° SE daylight
19 Apr - 15:54:34 10° WSW 16:00:27 22° SSW 16:06:26 10° SSE daylight
20 Apr - 02:59:58 10° SW 03:03:42 54° SSE 03:07:13 10° ENE visible
20 Apr - 04:49:14 10° WNW 04:51:55 19° NNW 04:54:43 10° NNE visible
20 Apr - 10:17:43 10° NNW 10:21:08 16° NNE 10:24:58 10° ENE daylight
20 Apr - 12:04:18 10° NW 12:10:27 48° NNE 12:17:48 10° E daylight
20 Apr - 13:52:40 10° WNW 13:59:42 57° SSW 14:07:42 10° SE daylight
20 Apr - 15:44:09 10° WSW 15:49:21 19° SSW 15:54:40 10° SSE daylight
